Location: Kellogg
(38.0159°N, 90.0546°W)
Time: 00:26:46
(UTC+00:00)

Vanguard 2 - Pass Details

Date: 28 September 2024
Orbit: 552 x 2910 km, 32.9° (Epoch: 15 October)

Event Time Altitude Azimuth Distance (km) Brightness Sun altitude
Rises 07:25:49 0° 261° (W) 2,905 - -48.1°
Reaches altitude 10° 07:28:18 10° 254° (WSW) 1,882 - -47.8°
Maximum altitude 07:32:08 40° 183° (S) 809 - -47.4°
Drops below altitude 10° 07:35:59 10° 112° (ESE) 1,901 - -46.9°
Sets 07:38:31 0° 105° (ESE) 2,941 - -46.6°
